When you browse on this site, cookies collect data to enhance your experience and personalize the content and advertising you see.
Visit our Privacy Policy to learn more. By continuing to use the site, you agree to this use of cookies and data.
  • Em Portugal
  • Lista de países
  • Para 7 dias
  • Temperatura da água
  • Mapas de satélite
  • Mapa do tempo
  • Widgets de tempo
  • user-avatar
    Iniciar Sessão

    Previsão horária em Soma Bey

    Hoje, 23 Maio, Quinta-feira

    Tempo Temperatura Precipitação Vento Pressão Humidade
    00:00 +34°C° 0 mm 2 m/s 748 mmHg 12%
    01:00 +34°C° 0 mm 2 m/s 748 mmHg 12%
    02:00 +34°C° 0 mm 2 m/s 747 mmHg 14%
    03:00 +32°C° 0 mm 2 m/s 747 mmHg 14%
    04:00 +33°C° 0 mm 3 m/s 747 mmHg 15%
    05:00 +33°C° 0 mm 3 m/s 747 mmHg 15%
    06:00 +35°C° 0 mm 3 m/s 748 mmHg 14%
    07:00 +37°C° 0 mm 4 m/s 748 mmHg 13%
    08:00 +40°C° 0 mm 5 m/s 748 mmHg 12%
    09:00 +41°C° 0 mm 5 m/s 748 mmHg 13%
    10:00 +42°C° 0 mm 5 m/s 748 mmHg 13%
    11:00 +42°C° 0 mm 5 m/s 748 mmHg 14%
    12:00 +43°C° 0 mm 5 m/s 747 mmHg 13%
    13:00 +43°C° 0 mm 4 m/s 747 mmHg 12%
    14:00 +43°C° 0 mm 3 m/s 747 mmHg 11%
    15:00 +43°C° 0 mm 3 m/s 747 mmHg 11%
    16:00 +43°C° 0 mm 3 m/s 747 mmHg 11%
    17:00 +42°C° 0 mm 2 m/s 746 mmHg 10%
    18:00 +40°C° 0 mm 2 m/s 746 mmHg 11%
    19:00 +39°C° 0 mm 1 m/s 747 mmHg 12%
    20:00 +34°C° 0 mm 0 m/s 747 mmHg 13%
    21:00 +34°C° 0 mm 0 m/s 747 mmHg 13%
    22:00 +33°C° 0 mm 0 m/s 747 mmHg 13%
    23:00 +33°C° 0 mm 0 m/s 747 mmHg 13%

    Amanhã, 24 Maio, Sexta-feira

    Tempo Temperatura Precipitação Vento Pressão Humidade
    00:00 +34°C° 0 mm 1 m/s 747 mmHg 13%
    01:00 +34°C° 0 mm 1 m/s 746 mmHg 14%
    02:00 +33°C° 0 mm 1 m/s 746 mmHg 14%
    03:00 +33°C° 0 mm 1 m/s 746 mmHg 15%
    04:00 +32°C° 0 mm 1 m/s 746 mmHg 15%
    05:00 +31°C° 0 mm 1 m/s 746 mmHg 16%
    06:00 +34°C° 0 mm 1 m/s 747 mmHg 14%
    07:00 +36°C° 0 mm 1 m/s 747 mmHg 13%
    08:00 +37°C° 0 mm 0 m/s 747 mmHg 11%
    09:00 +41°C° 0 mm 1 m/s 747 mmHg 10%
    10:00 +43°C° 0 mm 2 m/s 747 mmHg 9%
    11:00 +45°C° 0 mm 3 m/s 747 mmHg 9%
    12:00 +47°C° 0 mm 4 m/s 747 mmHg 9%
    13:00 +47°C° 0 mm 5 m/s 746 mmHg 9%
    14:00 +47°C° 0 mm 7 m/s 746 mmHg 9%
    15:00 +46°C° 0 mm 6 m/s 746 mmHg 10%
    16:00 +45°C° 0 mm 5 m/s 745 mmHg 11%
    17:00 +42°C° 0 mm 3 m/s 745 mmHg 13%
    18:00 +40°C° 0 mm 3 m/s 745 mmHg 14%
    19:00 +39°C° 0 mm 2 m/s 745 mmHg 15%
    20:00 +36°C° 0 mm 1 m/s 745 mmHg 17%
    21:00 +36°C° 0 mm 1 m/s 745 mmHg 16%
    22:00 +36°C° 0 mm 1 m/s 746 mmHg 15%
    23:00 +36°C° 0 mm 1 m/s 746 mmHg 15%

    Depois de amanhã, 25 Maio, Sábado

    Tempo Temperatura Precipitação Vento Pressão Humidade
    00:00 +35°C° 0 mm 1 m/s 745 mmHg 15%
    01:00 +34°C° 0 mm 1 m/s 745 mmHg 15%
    02:00 +34°C° 0 mm 1 m/s 745 mmHg 15%
    03:00 +33°C° 0 mm 1 m/s 745 mmHg 18%
    04:00 +34°C° 0 mm 2 m/s 745 mmHg 20%
    05:00 +34°C° 0 mm 2 m/s 745 mmHg 22%
    06:00 +34°C° 0 mm 2 m/s 746 mmHg 23%
    07:00 +35°C° 0 mm 2 m/s 747 mmHg 24%
    08:00 +36°C° 0 mm 3 m/s 747 mmHg 24%
    09:00 +38°C° 0 mm 3 m/s 747 mmHg 22%
    10:00 +39°C° 0 mm 3 m/s 747 mmHg 20%
    11:00 +42°C° 0 mm 4 m/s 747 mmHg 18%
    12:00 +42°C° 0 mm 4 m/s 747 mmHg 19%
    13:00 +42°C° 0 mm 4 m/s 746 mmHg 20%
    14:00 +42°C° 0 mm 4 m/s 746 mmHg 21%
    15:00 +40°C° 0 mm 3 m/s 746 mmHg 23%
    16:00 +38°C° 0 mm 3 m/s 745 mmHg 25%
    17:00 +37°C° 0 mm 2 m/s 745 mmHg 28%
    18:00 +37°C° 0 mm 2 m/s 745 mmHg 29%
    19:00 +35°C° 0 mm 1 m/s 745 mmHg 31%
    20:00 +34°C° 0 mm 1 m/s 746 mmHg 32%
    21:00 +34°C° 0 mm 1 m/s 746 mmHg 33%
    22:00 +33°C° 0 mm 1 m/s 746 mmHg 33%
    23:00 +33°C° 0 mm 1 m/s 746 mmHg 33%

    26 Maio, Domingo

    Tempo Temperatura Precipitação Vento Pressão Humidade
    00:00 +32°C° 0 mm 1 m/s 746 mmHg 33%
    01:00 +32°C° 0 mm 2 m/s 746 mmHg 32%
    02:00 +32°C° 0 mm 2 m/s 745 mmHg 32%
    03:00 +31°C° 0 mm 3 m/s 745 mmHg 33%
    04:00 +31°C° 0 mm 3 m/s 745 mmHg 34%
    05:00 +30°C° 0 mm 3 m/s 745 mmHg 35%
    06:00 +33°C° 0 mm 3 m/s 746 mmHg 32%
    07:00 +34°C° 0 mm 3 m/s 746 mmHg 28%
    08:00 +36°C° 0 mm 3 m/s 746 mmHg 25%
    09:00 +38°C° 0 mm 4 m/s 746 mmHg 23%
    10:00 +40°C° 0 mm 4 m/s 746 mmHg 21%
    11:00 +41°C° 0 mm 4 m/s 746 mmHg 19%
    12:00 +42°C° 0 mm 5 m/s 746 mmHg 19%
    13:00 +42°C° 0 mm 5 m/s 745 mmHg 19%
    14:00 +43°C° 0 mm 5 m/s 745 mmHg 19%
    15:00 +42°C° 0 mm 4 m/s 745 mmHg 20%
    16:00 +40°C° 0 mm 3 m/s 744 mmHg 21%
    17:00 +39°C° 0 mm 3 m/s 744 mmHg 23%
    18:00 +38°C° 0 mm 2 m/s 744 mmHg 24%
    19:00 +36°C° 0 mm 1 m/s 745 mmHg 26%
    20:00 +35°C° 0 mm 1 m/s 745 mmHg 28%
    21:00 +35°C° 0 mm 1 m/s 745 mmHg 27%
    22:00 +34°C° 0 mm 1 m/s 745 mmHg 27%
    23:00 +34°C° 0 mm 1 m/s 746 mmHg 27%

    27 Maio, Segunda-feira

    Tempo Temperatura Precipitação Vento Pressão Humidade
    00:00 +33°C° 0 mm 1 m/s 745 mmHg 28%
    01:00 +34°C° 0 mm 2 m/s 745 mmHg 28%
    02:00 +32°C° 0 mm 2 m/s 745 mmHg 29%
    03:00 +32°C° 0 mm 2 m/s 745 mmHg 31%
    04:00 +31°C° 0 mm 2 m/s 745 mmHg 33%
    05:00 +31°C° 0 mm 3 m/s 745 mmHg 35%
    06:00 +34°C° 0 mm 3 m/s 745 mmHg 30%
    07:00 +35°C° 0 mm 3 m/s 745 mmHg 26%
    08:00 +37°C° 0 mm 3 m/s 746 mmHg 22%
    09:00 +39°C° 0 mm 3 m/s 746 mmHg 20%
    10:00 +40°C° 0 mm 3 m/s 746 mmHg 18%
    11:00 +42°C° 0 mm 4 m/s 746 mmHg 17%
    12:00 +43°C° 0 mm 4 m/s 745 mmHg 17%
    13:00 +43°C° 0 mm 4 m/s 745 mmHg 16%
    14:00 +43°C° 0 mm 4 m/s 744 mmHg 16%
    15:00 +43°C° 0 mm 3 m/s 744 mmHg 17%
    16:00 +42°C° 0 mm 3 m/s 744 mmHg 18%
    17:00 +40°C° 0 mm 2 m/s 744 mmHg 19%
    18:00 +39°C° 0 mm 2 m/s 744 mmHg 21%
    19:00 +38°C° 0 mm 2 m/s 745 mmHg 23%
    20:00 +36°C° 0 mm 1 m/s 745 mmHg 25%
    21:00 +36°C° 0 mm 1 m/s 745 mmHg 25%
    22:00 +35°C° 0 mm 1 m/s 745 mmHg 25%
    23:00 +35°C° 0 mm 1 m/s 745 mmHg 25%

    28 Maio, Terça-feira

    Tempo Temperatura Precipitação Vento Pressão Humidade
    00:00 +35°C° 0 mm 2 m/s 745 mmHg 25%
    01:00 +35°C° 0 mm 2 m/s 745 mmHg 24%
    02:00 +34°C° 0 mm 2 m/s 744 mmHg 24%
    03:00 +34°C° 0 mm 3 m/s 744 mmHg 24%
    04:00 +33°C° 0 mm 3 m/s 745 mmHg 24%
    05:00 +33°C° 0 mm 3 m/s 745 mmHg 24%
    06:00 +35°C° 0 mm 3 m/s 745 mmHg 22%
    07:00 +37°C° 0 mm 3 m/s 745 mmHg 19%
    08:00 +39°C° 0 mm 3 m/s 746 mmHg 16%
    09:00 +40°C° 0 mm 3 m/s 746 mmHg 15%
    10:00 +42°C° 0 mm 4 m/s 745 mmHg 15%
    11:00 +43°C° 0 mm 4 m/s 745 mmHg 14%
    12:00 +43°C° 0 mm 4 m/s 745 mmHg 14%
    13:00 +43°C° 0 mm 5 m/s 745 mmHg 14%
    14:00 +45°C° 0 mm 5 m/s 744 mmHg 14%
    15:00 +43°C° 0 mm 4 m/s 744 mmHg 15%
    16:00 +42°C° 0 mm 4 m/s 744 mmHg 16%
    17:00 +42°C° 0 mm 3 m/s 744 mmHg 16%
    18:00 +39°C° 0 mm 3 m/s 744 mmHg 18%
    19:00 +38°C° 0 mm 2 m/s 745 mmHg 19%
    20:00 +36°C° 0 mm 1 m/s 745 mmHg 21%
    21:00 +36°C° 0 mm 1 m/s 745 mmHg 20%
    22:00 +36°C° 0 mm 2 m/s 745 mmHg 20%
    23:00 +36°C° 0 mm 2 m/s 745 mmHg 19%
    Mostrar mais